Location: ??????
(30.0595°N, 31.2580°E)
Time: 02:12:42
(UTC+00:00)

Daily predictions for brighter satellites

Satellite Brightness Start Highest point End
(mag) Time Altitude Azimuth Time Altitude Azimuth Time Altitude Azimuth
Resurs 1-4 Rocket 4.4 00:10:26 10° NNW 00:11:25 15° NNW 00:11:25 15° NNW
ARIANE 5 R/B 3.9 00:21:27 10° NNE 00:25:33 35° E 00:25:33 35° E
SL-16 R/B 4.3 00:36:28 19° NW 00:36:28 19° NW 00:38:18 10° NNW
CZ-2D R/B 4.4 00:32:21 10° NNW 00:33:21 14° NNW 00:33:21 14° NNW
CZ-4C R/B 3.0 00:29:52 10° NNW 00:37:45 89° WSW 00:46:26 10° SSE
ADEOS Rocket 3.2 00:41:43 60° SE 00:42:52 75° ENE 00:49:49 10° N
Cosmos 2082 Rocket 4.5 00:37:29 10° NNW 00:38:00 13° NNW 00:38:00 13° NNW
ADEOS II 3.7 00:39:02 10° N 00:41:22 24° NNW 00:41:22 24° NNW
ATLAS 2AS CENTAUR R/B 4.1 00:40:59 10° NNW 00:47:31 37° NE 00:53:34 10° ESE
Cosmos 1943 Rocket 3.3 00:51:58 33° NNW 00:51:58 33° NNW 00:55:43 10° N
DNEPR-1 R/B 4.5 00:51:36 66° NNW 00:51:36 66° NNW 00:56:45 10° NNE
Cosmos 1535 Rocket 4.3 00:45:12 10° N 00:51:13 85° NW 00:51:13 85° NW
Cosmos 1125 Rocket 3.9 00:52:50 57° ESE 00:52:50 57° ESE 00:58:00 10° NNE
Delta 168 4.5 00:55:41 60° SSW 00:56:09 61° S 01:02:43 10° ESE
SL-4 R/B 2.9 00:58:28 56° NE 00:58:28 56° NE 01:02:57 10° ESE
CZ-4B R/B 3.8 00:55:02 10° N 00:58:49 56° N 00:58:49 56° N
Delta 2 Rocket 4.1 01:01:51 52° SSE 01:01:51 52° SSE 01:06:50 10° ESE
IDEFIX/ARIANE 42P 3.2 00:58:28 10° N 01:02:22 44° NNW 01:02:22 44° NNW
Cosmos 2263 4.0 01:04:57 83° SW 01:05:11 88° WNW 01:10:57 10° NNE
Cosmos 2151 Rocket 4.2 01:01:42 10° N 01:06:09 56° E 01:06:37 53° ESE
Cosmos 1934 Rocket 4.2 01:02:57 10° NNW 01:08:15 51° WNW 01:08:15 51° WNW
Centaur D AC-29 3.2 01:12:14 13° SE 01:12:14 13° SE 01:12:37 10° ESE
Okean 2 Rocket 3.7 01:05:38 10° N 01:08:55 50° N 01:08:55 50° N
Cosmos 2150 Rocket 4.1 01:15:53 62° WNW 01:15:53 62° WNW 01:21:14 10° N
USA 234 4.5 01:13:04 10° NNE 01:18:22 27° NW 01:20:19 23° WNW
Cosmos 1842 4.0 01:21:07 45° N 01:21:07 45° N 01:23:53 10° N
CZ-2C R/B 3.1 01:16:48 10° NNE 01:21:35 52° E 01:24:12 26° SSE
Cosmos 2369 Rocket 2.7 01:23:05 40° WNW 01:23:05 40° WNW 01:28:16 10° N
ISS -0.8 01:23:07 10° SE 01:23:35 10° SE 01:24:05 10° ESE
MSX 4.1 01:21:36 10° N 01:27:06 47° WNW 01:27:41 46° W
Milstar 3 3.1 01:24:46 39° W 01:27:54 78° S 01:39:03 10° E
Okean 1 Rocket 4.2 01:24:33 10° N 01:28:48 44° E 01:33:00 10° SSE
Cosmos 1607 3.9 01:33:37 36° SSW 01:36:26 89° WNW 01:42:57 10° NNE
Cosmos 1605 Rocket 4.1 01:30:37 10° NNW 01:36:31 51° W 01:38:42 36° SW
Cosmos 1378 Rocket 3.7 01:37:45 51° WNW 01:37:45 51° WNW 01:41:59 10° N
Meteor 1-15 Rocket 4.5 01:33:30 10° NNW 01:38:46 44° W 01:39:29 42° WSW
Cosmos 1048 Rocket 4.0 01:43:03 10° NNW 01:48:25 88° ENE 01:53:42 10° SSE
Cosmos 1656 Rocket 4.2 01:49:44 33° W 01:50:59 37° WNW 01:56:00 10° N
CZ-2C R/B 2.8 01:50:29 10° N 01:54:15 57° WNW 01:55:19 41° SW
FENGYUN 3A 3.9 01:49:07 10° NNE 01:54:28 68° ESE 01:59:48 10° S
Cosmos 1484 Rocket 4.1 01:52:48 10° NNE 01:56:37 41° E 02:00:22 10° S
Cosmos 2100 Rocket 4.0 01:51:06 10° N 01:57:20 83° E 02:03:37 10° S
Okean 2 4.0 01:59:22 33° W 01:59:49 34° W 02:03:37 10° NNW
SL-08 R/B 3.8 01:58:09 27° SW 02:00:03 37° W 02:04:32 10° NNW
Cosmos 2173 Rocket 3.9 01:57:39 10° N 02:03:47 87° E 02:09:56 10° S
Meteor 2-10 4.1 01:58:24 10° N 02:04:00 78° W 02:09:25 10° S
ARIANE 5 R/B 3.9 02:01:17 10° NNW 02:05:00 20° WNW 02:05:54 19° W
Cosmos 494 Rocket 3.9 02:00:05 10° NNW 02:05:19 89° WSW 02:10:28 10° SSE
Cosmos 2123 Rocket 4.1 01:59:53 10° S 02:06:04 80° E 02:12:15 10° N
GOES 2 Rocket 3.9 02:05:03 25° SW 02:07:15 43° SSE 02:12:20 10° E
Cosmos 1674 3.6 02:05:05 10° SSE 02:08:44 49° E 02:12:25 10° NNE
METEOR-M 4.5 02:05:55 10° NNE 02:11:15 68° ESE 02:16:33 10° S
ATLAS CENTAUR R/B 1.8 02:08:24 13° S 02:11:27 48° ESE 02:14:59 10° NE
PAYLOAD A 4.5 02:08:02 10° N 02:12:34 37° WNW 02:15:17 20° SW
Cosmos 1758 3.4 02:09:27 10° N 02:13:32 80° E 02:17:36 10° S
SL-24 R/B - RUBIN 2 3.7 02:08:53 10° NNW 02:14:03 89° ENE 02:18:36 10° SSE
Cosmos 1459 Rocket 4.0 02:08:13 10° N 02:14:33 77° W 02:20:48 10° S
H-2A R/B 1.6 02:17:02 25° SW 02:18:09 45° SSE 02:24:17 10° E
Cosmos 1461 4.4 02:19:40 18° W 02:21:54 26° WNW 02:25:51 10° N
SL-24 R/B 3.9 02:17:50 10° SSE 02:22:00 81° ENE 02:25:48 10° N
Cosmos 1626 3.9 02:19:00 10° SSE 02:22:20 34° E 02:25:42 10° NNE
CZ-4C R/B 4.4 02:21:16 10° WNW 02:25:49 16° WSW 02:30:30 10° SW
PSLV R/B 3.9 02:22:25 10° N 02:26:23 42° WNW 02:30:14 10° SW
Cosmos 1726 2.5 02:24:53 10° NNW 02:28:25 42° W 02:31:56 10° SSW
Cosmos 1455 Rocket 3.5 02:24:30 10° N 02:28:46 63° E 02:33:03 10° SSE
ASTRO E2 2.6 02:26:16 14° W 02:29:31 70° SSW 02:33:26 10° ESE
SJ-6F 4.3 02:25:45 10° N 02:29:49 73° WNW 02:33:52 10° SSW
Cosmos 1470 3.5 02:28:09 10° NNW 02:31:36 31° W 02:35:03 10° SSW
Cosmos 1707 4.0 02:30:11 16° WSW 02:32:05 22° W 02:35:09 10° NNW
Cosmos 1867 4.3 02:28:59 15° WSW 02:32:58 35° WNW 02:37:57 10° N
Cosmos 1315 Rocket 3.3 02:29:47 10° N 02:33:40 61° E 02:37:33 10° SSE
GP-B 4.1 02:31:35 10° NNW 02:35:20 27° W 02:39:05 10° SW
GPS 2-04 Rocket1 2.4 02:34:52 15° W 02:37:34 66° NNW 02:40:58 10° ENE
SL-4 R/B 3.8 02:34:29 10° W 02:37:37 17° WSW 02:40:41 10° SSW
ATLAS 2AS CENTAUR R/B 3.2 02:32:08 10° NW 02:38:14 34° WSW 02:43:59 10° S
ALOS 2.9 02:36:56 10° N 02:41:13 37° WNW 02:45:29 10° SW
Iridium 2 3.6 02:38:31 10° S 02:42:15 89° W 02:46:02 10° N
Cosmos 1975 Rocket 3.9 02:40:32 10° SW 02:44:31 31° W 02:48:28 10° NNW
KORONAS-FOTON 4.1 02:42:02 10° SSW 02:45:42 44° W 02:49:26 10° N
Landsat 5 3.6 02:41:38 10° S 02:46:06 84° WSW 02:50:38 10° NNW
Cosmos 1269 Rocket 4.1 02:43:02 10° NNW 02:48:21 89° ENE 02:53:38 10° SSE
H-2A R/B 3.1 02:45:35 10° SSE 02:49:37 50° ENE 02:53:46 10° N
CZ-4C R/B 2.9 02:46:55 10° S 02:50:26 79° WSW 02:53:52 10° NNW
Cosmos 1025 Rocket 3.1 02:50:04 10° SSW 02:54:13 52° W 02:58:24 10° N
Cosmos 1400 Rocket 4.4 02:52:45 10° NW 02:55:23 17° W 02:58:02 10° SW
